Theta_e
323 327 329 334 338 340 346 349 354 355 354 353 351 352 351 349 350 349 349 349 345 346 346 344 344 346 345 347 346 347 346 348 348 348 348 347 345 347 347 350 351 352 351 353
324 327 329 332 338 336 336 344 348 347 352 351 355 355 351 349 349 349 349 349 347 346 348 345 345 345 345 347 347 348 349 350 349 347 347 346 345 345 347 350 350 350 350 352
326 326 331 331 335 334 333 338 344 347 347 345 349 357 354 350 348 348 347 348 349 349 350 347 346 345 346 347 348 348 350 350 349 347 348 350 349 348 348 350 350 350 350 350
326 329 329 329 331 332 333 333 335 339 344 356 345 353 357 355 354 351 348 348 350 353 347 347 346 345 346 346 346 349 351 351 350 352 348 349 349 348 346 347 347 351 350 351
327 327 327 328 329 331 334 337 336 340 340 346 347 344 353 356 357 353 350 349 348 347 345 346 345 346 345 347 348 347 350 351 349 351 350 351 348 346 347 347 352 353 352 352
325 324 325 326 326 328 330 334 338 339 342 345 343 342 357 362 357 354 351 350 348 346 346 346 344 346 346 346 347 347 350 352 351 351 351 351 348 348 345 349 351 348 351 350
323 324 323 324 327 328 327 334 340 343 343 343 344 339 346 347 349 352 352 351 349 349 346 345 346 347 347 347 348 347 350 351 352 351 349 350 351 351 348 349 348 346 346 346
327 325 325 327 328 330 330 333 338 350 344 349 343 344 347 341 344 348 348 348 348 347 346 345 346 347 347 347 347 347 351 352 351 351 350 350 350 349 349 351 347 346 346 346
330 327 326 329 328 331 334 332 332 335 340 345 345 342 341 340 346 349 348 348 348 347 347 344 344 346 346 348 348 348 351 353 353 351 351 351 351 350 349 347 347 348 348 348
331 330 327 327 328 331 333 337 334 333 345 347 346 342 347 343 346 346 343 344 349 349 348 344 345 346 347 347 347 348 350 353 353 351 351 351 351 351 352 353 353 351 350 348
328 330 332 329 329 329 332 331 337 336 344 354 354 349 342 343 346 346 343 342 344 350 347 347 345 345 348 348 348 348 350 353 353 352 351 351 351 351 351 350 351 351 352 354
330 329 331 331 330 332 334 337 338 335 347 340 349 349 348 349 348 346 344 344 347 351 347 345 345 345 345 348 349 349 350 352 353 351 351 351 352 352 351 351 351 352 352 354
331 330 329 329 330 331 330 328 330 339 335 342 341 343 350 351 352 348 344 342 347 348 349 349 346 346 347 347 350 350 351 351 352 352 352 352 353 353 352 351 352 351 352 354
326 324 327 329 332 333 334 335 336 335 342 337 334 340 350 353 355 354 353 344 344 349 347 348 348 349 346 350 350 352 352 352 352 352 352 353 353 353 353 352 352 353 354 354
325 326 326 327 328 328 330 334 338 338 333 333 336 336 332 346 353 353 353 352 348 348 345 347 348 348 348 349 352 353 353 353 352 353 353 353 354 354 355 354 353 355 355 355
327 327 326 327 325 323 327 328 330 333 335 337 339 339 345 351 351 353 351 352 353 349 347 348 350 347 348 348 351 354 355 354 354 354 355 355 356 356 354 354 355 356 356 355
326 326 325 326 325 327 329 328 328 329 333 334 341 352 350 350 350 352 349 348 350 349 349 351 349 348 347 349 352 354 355 355 356 355 356 357 357 358 356 356 355 355 355 355
324 325 327 326 326 329 327 332 332 334 332 335 339 347 345 353 351 346 344 344 345 343 344 350 351 351 351 351 354 354 354 355 358 359 357 357 358 357 357 357 355 355 354 354
325 326 328 330 330 325 325 327 328 329 331 331 340 338 348 347 347 348 343 343 342 338 339 344 352 351 351 350 352 354 355 356 357 355 355 355 354 353 353 353 355 354 354 355
325 327 328 328 330 337 331 332 333 331 333 332 332 339 348 347 354 353 343 342 341 337 338 345 350 352 349 351 351 352 352 354 353 354 355 356 356 356 354 352 353 352 353 350
329 331 330 329 329 330 332 331 330 331 334 338 339 338 345 348 348 343 340 339 340 337 338 340 344 346 350 351 349 350 348 349 351 350 350 350 349 349 348 349 348 348 346 343
328 327 328 328 328 329 331 331 331 337 336 338 339 343 346 345 341 341 338 336 336 337 339 340 342 341 343 348 347 348 347 344 346 347 346 347 346 345 342 341 341 341 341 333
328 326 327 333 329 329 329 329 329 333 335 336 339 342 345 341 341 340 338 335 336 334 333 340 341 340 342 342 344 345 347 347 346 345 344 339 339 339 338 337 333 332 332 331
327 326 328 325 326 327 328 328 328 329 332 334 337 341 338 340 340 340 340 337 333 332 333 335 337 337 336 338 337 339 342 342 341 338 335 332 336 332 331 332 331 330 329 327
327 332 331 327 327 327 327 328 330 332 332 334 336 338 338 338 338 338 339 339 335 332 332 332 331 332 331 330 331 334 337 338 334 328 328 328 328 330 329 329 324 326 328 328
325 327 327 326 327 327 329 331 334 335 334 335 336 337 337 337 338 337 336 335 334 334 333 331 331 332 332 331 329 330 332 333 332 329 329 326 326 327 324 323 322 325 325 324
Wind_Speed
14 12 13 16 7 4 9 8 11 11 11 13 7 5 12 7 13 11 6 13 16 16 15 18 18 20 18 18 17 15 13 16 15 13 13 12 13 9 8 10 8 7 6 4
10 13 15 5 2 7 12 4 11 9 13 11 10 6 12 8 9 11 17 9 12 17 4 19 19 16 19 19 16 16 13 14 14 13 12 11 11 10 8 10 9 6 7 5
13 10 9 3 7 11 11 3 6 12 7 4 9 10 15 13 10 15 21 14 13 11 21 13 19 20 16 25 22 19 16 16 15 12 10 5 7 7 7 11 9 8 6 5
10 9 1 12 13 11 14 3 2 1 12 5 18 1 16 18 18 17 22 12 20 28 19 18 22 17 20 20 17 19 18 17 15 14 15 10 10 11 11 11 11 11 7 6
5 4 10 12 11 7 1 4 7 2 12 11 7 10 13 18 14 18 25 25 15 16 15 19 21 24 20 24 21 20 20 17 16 15 8 15 17 10 10 10 12 4 9 6
5 3 8 10 5 7 10 5 7 8 11 12 3 5 9 14 18 20 16 23 19 18 17 19 12 24 22 22 23 21 20 18 17 15 11 14 14 9 11 12 9 11 11 9
8 11 10 6 11 10 13 16 10 10 9 4 4 7 3 11 17 22 25 25 22 21 16 11 16 20 22 21 25 21 22 21 20 16 15 13 10 9 7 9 12 11 12 11
8 12 13 11 17 7 12 19 10 1 6 6 7 2 3 3 9 18 18 22 24 21 17 8 21 21 26 24 21 20 23 21 21 19 17 14 13 12 11 10 11 11 9 9
3 6 8 7 10 11 5 14 19 6 12 4 9 4 8 5 10 20 18 21 20 22 21 12 21 27 22 21 22 21 21 21 22 22 19 16 15 14 13 12 14 11 9 6
3 9 9 12 10 12 13 14 9 7 5 7 3 5 10 6 6 11 11 10 13 21 21 22 19 23 22 22 23 21 21 22 22 21 21 20 18 16 14 9 9 11 7 12
13 10 2 5 11 14 5 13 19 2 6 2 5 7 9 7 5 10 5 6 11 16 25 23 12 25 25 22 24 23 22 21 21 21 20 19 19 18 16 14 13 13 11 8
8 9 8 13 7 12 11 14 27 12 18 4 8 7 9 4 5 9 8 6 3 7 23 15 20 24 25 18 25 23 23 22 21 21 20 20 18 17 17 17 16 15 15 13
11 8 11 14 16 17 10 17 11 2 4 6 1 2 6 7 5 11 14 7 5 2 7 10 14 15 21 24 20 23 23 23 22 21 22 21 20 19 18 17 17 17 16 15
6 13 14 11 3 10 14 16 26 11 7 16 13 10 15 11 7 5 9 10 3 5 3 8 10 12 18 25 23 22 23 23 22 21 20 21 21 20 18 18 17 17 17 16
7 11 12 15 14 14 14 11 20 22 14 13 11 15 3 13 11 6 6 5 5 4 7 8 7 14 14 14 21 23 24 23 22 21 20 19 18 18 17 16 16 16 17 17
4 8 8 12 16 16 19 18 17 11 20 11 21 14 6 13 8 8 3 4 5 8 9 16 12 13 17 22 21 22 23 23 22 21 20 18 17 16 16 16 16 15 16 16
4 8 10 13 14 9 12 16 20 17 16 7 17 4 16 7 8 6 4 3 2 2 6 12 13 15 13 26 20 19 21 21 21 20 19 18 17 17 16 16 17 18 18 18
8 9 8 10 11 13 11 9 10 20 12 6 14 17 9 8 8 6 3 5 3 3 5 10 6 10 12 12 11 15 17 19 16 13 14 12 12 13 12 15 19 19 19 17
4 8 9 10 11 12 9 7 11 14 15 16 20 23 10 3 4 7 4 3 5 1 5 8 2 7 7 12 16 14 14 15 15 17 14 15 14 11 13 18 18 20 17 15
4 5 8 11 7 12 9 4 9 8 12 14 6 12 8 3 7 7 5 4 6 3 4 2 5 8 15 13 18 18 14 15 15 9 7 5 5 4 7 3 4 6 6 11
9 8 11 10 10 6 9 3 5 6 3 11 15 5 9 2 6 6 4 5 4 4 5 7 9 9 5 15 18 17 12 10 13 13 13 9 6 2 3 3 4 2 5 9
7 8 9 8 7 8 6 3 7 7 9 7 12 8 12 10 8 7 6 6 4 5 5 5 11 12 11 9 17 17 16 13 15 13 12 8 7 4 4 4 2 5 11 10
7 8 8 7 6 4 3 8 7 7 7 8 9 6 9 14 10 7 8 4 4 5 5 6 11 12 13 12 14 15 14 15 16 16 14 14 13 13 10 11 11 13 12 14
12 10 6 10 11 10 5 7 9 11 10 10 1 1 4 8 11 9 8 8 7 7 9 7 13 13 12 14 13 16 13 15 14 14 13 12 14 12 10 10 11 12 11 9
5 5 6 9 14 14 11 8 8 7 9 9 3 8 8 7 4 7 9 8 11 9 10 13 13 14 13 12 13 14 13 14 15 14 12 12 11 12 13 12 10 8 8 8
9 10 10 10 7 3 5 3 2 7 6 10 4 5 8 13 11 11 10 11 10 11 12 14 14 14 14 17 15 13 12 12 15 14 12 10 10 10 10 11 12 10 8 6
Wind_Direction
208 219 217 229 250 83 98 131 156 121 146 154 191 220 197 209 261 270 289 278 193 176 179 166 168 165 161 157 165 169 172 158 181 175 182 175 170 166 180 132 126 144 143 134
190 232 222 292 85 260 246 112 78 110 170 241 171 180 149 154 260 268 265 241 236 183 197 167 160 179 166 155 174 168 165 178 191 186 196 188 171 172 173 147 155 155 158 154
225 197 75 212 215 251 261 260 176 124 183 230 175 147 166 182 205 254 259 262 302 283 178 148 179 178 185 160 181 179 178 183 188 201 194 177 164 150 170 147 173 176 169 167
254 102 233 223 241 225 259 55 294 132 245 143 258 349 175 173 194 217 239 259 257 209 242 179 168 189 174 168 188 175 185 185 196 216 193 187 194 193 191 178 174 160 181 180
140 160 213 235 237 214 262 221 277 259 291 307 136 273 141 161 194 205 223 221 228 258 246 180 177 180 182 170 180 181 185 185 188 207 211 187 211 199 182 191 150 199 178 195
318 255 227 241 228 267 272 252 259 252 249 250 94 267 133 175 194 188 223 225 221 223 210 194 191 174 175 178 173 186 177 187 189 195 201 207 211 277 189 181 159 192 187 197
193 195 219 259 229 202 226 234 223 221 212 240 155 282 197 182 166 179 190 207 225 203 238 160 184 185 168 182 169 187 174 189 192 191 194 207 229 234 196 179 203 196 187 194
228 176 190 184 246 195 217 249 262 60 332 354 227 210 22 87 158 174 179 191 204 222 214 216 159 197 167 188 178 187 175 186 195 195 199 201 210 215 224 195 220 221 223 189
270 177 153 175 230 264 218 226 266 318 190 298 176 234 146 81 94 142 185 189 192 218 220 200 193 152 182 173 179 191 179 190 194 197 196 200 202 223 221 214 214 234 245 215
29 268 178 181 244 240 255 322 242 212 221 270 268 179 124 166 179 151 139 224 196 188 222 220 191 171 165 187 181 190 186 190 195 199 198 200 201 208 218 226 200 242 262 241
306 290 211 207 216 254 207 237 238 276 93 211 336 3 94 124 124 135 123 275 276 195 199 218 193 175 166 192 177 185 189 191 195 199 197 202 204 208 216 225 224 226 236 235
1 301 270 208 309 123 127 274 272 262 192 150 124 272 267 67 162 139 89 6 309 329 198 199 194 182 178 201 171 185 189 194 197 198 199 202 208 212 213 219 221 220 225 226
353 258 252 249 204 210 231 245 233 98 28 276 228 324 118 121 124 164 117 85 61 82 4 289 192 182 177 190 190 188 191 194 195 198 200 205 206 208 214 216 217 220 219 223
309 271 289 302 271 264 275 319 319 188 191 227 211 173 164 138 125 111 116 104 24 52 355 323 291 244 186 178 193 193 197 196 195 197 202 202 208 211 215 216 216 218 222 226
257 278 289 291 306 283 275 144 289 294 280 260 114 265 29 117 125 111 111 128 165 50 315 283 254 253 233 194 185 196 201 196 195 195 198 204 207 214 216 219 218 220 220 223
248 281 275 286 281 270 268 269 259 208 253 308 336 218 104 96 115 136 117 129 148 177 199 285 274 196 210 223 199 196 203 196 197 191 199 198 201 210 215 218 222 219 228 229
265 297 294 280 299 298 277 263 259 254 262 310 217 5 341 114 149 123 132 115 185 319 333 260 230 203 233 200 195 196 198 197 190 194 194 198 200 208 215 218 220 225 225 228
256 267 279 273 286 264 258 1 328 315 244 257 276 138 196 41 96 120 139 150 131 323 332 334 297 152 181 198 178 188 199 192 184 187 185 185 205 214 212 226 233 230 229 229
190 273 277 280 255 261 265 229 229 260 278 271 164 262 108 151 167 149 130 113 102 30 301 304 261 190 168 169 175 153 174 171 165 183 189 189 200 219 241 240 238 240 235 230
254 235 267 278 309 297 33 3 326 352 287 291 206 241 103 245 249 96 112 91 101 49 330 52 93 135 168 144 154 154 159 173 163 181 183 192 193 179 237 243 254 242 217 188
211 231 249 240 254 296 68 179 332 245 308 333 327 322 128 129 66 111 100 82 72 65 23 73 104 102 72 151 164 151 162 145 138 150 129 115 79 154 209 186 186 216 213 188
247 265 260 226 267 275 10 242 262 16 323 7 319 19 89 112 116 114 94 70 31 76 73 79 84 71 65 124 126 125 121 124 127 120 124 142 146 140 104 115 186 215 198 173
241 247 299 320 353 251 291 303 297 329 306 312 297 188 235 127 119 120 111 100 89 90 71 80 94 89 64 79 102 97 109 126 129 117 107 105 116 105 103 111 111 112 129 125
213 208 246 270 257 280 288 292 275 272 268 273 247 273 61 99 114 120 123 120 99 86 84 98 101 89 80 78 110 108 124 111 110 106 103 115 125 120 106 100 103 105 102 108
11 122 242 268 256 263 254 231 284 273 240 266 206 159 155 120 109 128 104 99 111 111 98 88 90 88 93 101 107 112 102 114 108 108 110 114 123 124 118 110 102 104 124 126
283 232 256 266 356 310 336 358 264 240 215 242 186 226 153 155 157 138 104 104 117 115 109 102 101 93 95 98 98 106 120 118 119 116 113 116 114 113 110 108 93 84 99 109